TimeMST,TemperatureF,Dew PointF,Humidity,Sea Level PressureIn,VisibilityMPH,Wind Direction,Wind SpeedMPH,Gust SpeedMPH,PrecipitationIn,Events,Conditions,WindDirDegrees,DateUTC
12:52 AM,15.1,7.0,70,30.17,10.0,West,5.8,-,N/A,,Clear,270,2012-12-29 07:52:00
1:52 AM,5.0,1.0,84,30.20,10.0,West,3.5,-,N/A,,Clear,270,2012-12-29 08:52:00
2:52 AM,5.0,1.9,87,30.21,10.0,West,3.5,-,N/A,,Clear,270,2012-12-29 09:52:00
3:52 AM,9.0,3.9,80,30.20,10.0,WNW,3.5,-,N/A,,Clear,300,2012-12-29 10:52:00
4:52 AM,12.9,6.1,74,30.18,10.0,WNW,5.8,-,N/A,,Clear,290,2012-12-29 11:52:00
5:52 AM,16.0,8.1,71,30.19,10.0,WSW,3.5,-,N/A,,Clear,250,2012-12-29 12:52:00
6:52 AM,8.1,3.0,80,30.21,10.0,WNW,3.5,-,N/A,,Clear,300,2012-12-29 13:52:00
7:52 AM,12.0,6.1,77,30.21,10.0,NW,4.6,-,N/A,,Clear,310,2012-12-29 14:52:00
8:52 AM,19.9,10.0,65,30.23,10.0,West,5.8,-,N/A,,Clear,280,2012-12-29 15:52:00
9:52 AM,28.0,12.9,53,30.22,10.0,Calm,Calm,-,N/A,,Clear,0,2012-12-29 16:52:00
10:52 AM,28.9,17.1,61,30.22,10.0,SSW,3.5,-,N/A,,Clear,210,2012-12-29 17:52:00
11:52 AM,26.1,19.0,75,30.19,10.0,ESE,3.5,-,N/A,,Clear,110,2012-12-29 18:52:00
12:52 PM,27.0,18.0,69,30.17,10.0,ESE,5.8,-,N/A,,Clear,110,2012-12-29 19:52:00
1:52 PM,27.0,18.0,69,30.17,10.0,East,4.6,-,N/A,,Clear,90,2012-12-29 20:52:00
2:52 PM,25.0,18.0,75,30.18,10.0,ESE,5.8,-,N/A,,Clear,110,2012-12-29 21:52:00
3:52 PM,21.0,16.0,81,30.17,10.0,Calm,Calm,-,N/A,,Clear,0,2012-12-29 22:52:00
4:52 PM,19.0,12.9,77,30.15,10.0,ESE,3.5,-,N/A,,Clear,120,2012-12-29 23:52:00
5:52 PM,17.6,12.2,79,29.99,10.0,ESE,4.6,-,N/A,,Clear,110,2012-12-30 00:52:00
6:52 PM,17.1,12.0,81,30.14,10.0,ESE,3.5,-,N/A,,Clear,110,2012-12-30 01:52:00
7:52 PM,15.1,12.0,88,30.13,10.0,Calm,Calm,-,N/A,,Clear,0,2012-12-30 02:52:00
8:52 PM,16.0,12.0,84,30.08,10.0,Calm,Calm,-,N/A,,Clear,0,2012-12-30 03:52:00
9:52 PM,16.0,10.9,81,30.05,10.0,ESE,4.6,-,N/A,,Clear,110,2012-12-30 04:52:00
10:52 PM,16.0,10.0,77,30.05,10.0,ESE,3.5,-,N/A,,Clear,110,2012-12-30 05:52:00
11:52 PM,18.0,10.9,74,30.04,10.0,Calm,Calm,-,N/A,,Clear,0,2012-12-30 06:52:00